Location: Leiter
(44.7178°N, 106.2687°W)
Time: 02:41:06
(UTC+00:00)

CUBESAT XI-V - Pass Details

Date: 02 July 2022
Orbit: 668 x 690 km, 98.1° (Epoch: 13 August)

Event Time Altitude Azimuth Distance (km) Brightness Sun altitude
Exits shadow 08:28:59 26° 144° (SE) 1,315 ? -19.8°
Maximum altitude 08:31:27 60° 73° (ENE) 770 ? -19.7°
Drops below altitude 10° 08:35:58 10° 354° (N) 2,109 ? -19.4°
Sets 08:38:13 0° 351° (N) 3,025 ? -19.3°
